Regional Weather Roundup
Issued by NWS

Home | Current Version | Previous Version | Graphics & Text | Print | Product List | Glossary On
Versions: 1 2 3 4 5 6 7 8 9 10 11 12 13 14 15 16 17 18 19 20 21 22 23 24 25 26 27
000
ASUS45 KSLC 220310
RWRUT

UTAH REGIONAL WEATHER ROUNDUP
NATIONAL WEATHER SERVICE SALT LAKE CITY UT
900 PM MDT FRI APR 21 2017

UTZ001>011-023>025-220400-

NORTHERN UTAH

CITY           SKY/WX    TMP DP  RH WIND       PRES   REMARKS
BRIGHAM CITY     N/A     47  31  55 E3        30.23R
HILL AFB         N/A     46  26  46 CALM      30.22S
LOGAN          CLOUDY    47  30  51 E6        30.22R
OGDEN            N/A     44  30  57 NE6       30.22R
SALT LAKE CITY   N/A     50  29  44 NW8       30.22R
TOOELE VALLEY    N/A     43  32  65 SE5       30.23S
WENDOVER         N/A     52  27  38 S5        30.21R
HEBER CITY       N/A     41  25  52 NE9       30.21R
WEST JORDAN      N/A     46  35  63 NW5       30.23R

$$

UTZ011>015-024>027-220400-

CENTRAL/NORTHEAST UTAH

CITY           SKY/WX    TMP DP  RH WIND       PRES   REMARKS
PROVO AIRPORT  PTCLDY    46  23  39 NW17      30.21S
MOAB/CANYONLAN   N/A     53  16  23 NW17      30.06R
DELTA            N/A     45  19  36 N9        30.20S
PRICE            N/A     44  10  25 NW13G20   30.18R
ROOSEVELT      CLOUDY    50  14  23 N10       30.17R
VERNAL         MOCLDY    46  21  37 N12       30.15R

$$

UTZ013>016-019>022-027-220400-

SOUTHERN UTAH

CITY           SKY/WX    TMP DP  RH WIND       PRES   REMARKS
BRYCE CANYON     N/A     40  16  37 W9        30.20R WCI  34
CEDAR CITY       N/A     46  21  37 N10       30.15S
MILFORD          N/A     45  24  43 N7        30.18S
ST GEORGE        N/A     66  20  17 NE16G23   30.02R
HANKSVILLE       N/A     55  21  26 N12       30.12R
BLANDING         N/A     44  11  26 N8        30.16R

$$

REGIONAL REPORTS     COLORADO/ARIZONA

CITY           SKY/WX    TMP DP  RH WIND       PRES   REMARKS
CRAIG, CO      CLOUDY    38  31  76 SE6       30.18R WCI  33
GRAND JUNCTION MOCLDY    52  22  30 NE12      30.08R
RIFLE, CO      CLEAR     46  26  45 W3        30.13R
MONTROSE, CO   PTCLDY    48  17  29 W6        30.12R
CORTEZ, CO     CLEAR     49  10  20 N9        30.08R
COLORADO CITY    N/A     55  19  24 W8        30.11R
PAGE, AZ         N/A     63  32  31 NE6       30.01R
GRAND CANYON     N/A     46  16  30 CALM      30.13R
KINGMAN, AZ      N/A     61  20  20 NE9       30.00R
FLAGSTAFF, AZ    N/A     50  12  21 CALM      30.11R

$$

REGIONAL REPORTS    NEVADA/IDAHO/WYOMING

CITY           SKY/WX    TMP DP  RH WIND       PRES   REMARKS
LAS VEGAS, NV    N/A     76  15  10 E5        29.95R
ELY, NY          N/A     45  21  38 N9        30.18R
ELKO, NV         N/A     49  26  41 CALM      30.19R
POCATELLO, ID  PTCLDY    42  32  67 CALM      30.24R
BURLEY, ID       N/A     47  24  40 W5        30.21R
FORT BRIDGER,  CLEAR     32  23  69 W8        30.25R WCI  25
EVANSTON, WY   PTCLDY    32  23  69 NW9       30.23R WCI  24
ROCK SPRINGS,  CLOUDY    40  21  46 SW10      30.17R WCI  33
KEMMERER, WY     N/A     32  23  69 NW15G23   30.21R WCI  22

$$




USA.gov is the U.S. government's official web portal to all federal, state and local government web resources and services.